Content
SEND FEEDBACK

Daily
Averages
Monthly
Summary
United States of America

RANCHO SAN DIEGO, CALIFORNIA


Home > North America > United States > California
Elevation: 540 feet     Latitude: 32 47N     Longitude: 116 56W

WEATHER
 
SELECT A DAY
Number of Records: 114,758;   Date Range: 1/1/95 - 10/23/14
 
SHARE

PRINT THIS DATA

[ ← Previous Day ]
WEATHER ALMANAC - FEBRUARY 1, 2013
[ Next Day → ]
[ °C ]   °F
Weather ElementAverageHighLow
Temperature49.1 °F78.8 °F (1:51 pm)39.2 °F (4:55 am)
Dewpoint40.8 °F42.8 °F (9:55 pm)37.4 °F (1:51 pm)
Humidity76.1 %100 % (4:55 am)23 % (1:51 pm)
Barometer30.17 in30.19 in (9:35 pm)30.12 in (1:51 pm)
Wind Speed0.9 mph11.5 mph (1:51 pm)
Weather ElementAverage
Visibility11.4 mi
Wind DirectionENE (53.8 °)

Weather ElementTotal
Precipitation---
Heating Degree Days6 (Base 65)
Growing Degree Days9 (Base 50)
Averaged from 32 records on February 1, 2013
WEATHER CONDITIONS BREAKOUT
WIND DIRECTION BREAKOUT
WEATHER BY HOUR - FEBRUARY 1, 2013
[ °C ]   °F
Local TimeTemperatureDewpointHumidityBarometerVisibilityWind DirectionWind SpeedGust SpeedPrecipitationEventsConditions
12:35 AM44.6 °F41.0 °F87 %30.16 in10.0 miCalmClear
12:55 AM44.6 °F41.0 °F87 %30.16 in10.0 miCalmClear
1:15 AM44.6 °F41.0 °F87 %30.16 in10.0 miWNW (300°)3.5 mphClear
1:35 AM44.6 °F41.0 °F87 %30.16 in10.0 miCalmClear
1:55 AM44.6 °F41.0 °F87 %30.16 in10.0 miCalmClear
2:15 AM42.8 °F41.0 °F93 %30.16 in10.0 miCalmClear
2:35 AM42.8 °F41.0 °F93 %30.16 in10.0 miCalmClear
2:55 AM42.8 °F41.0 °F93 %30.16 in10.0 miCalmClear
3:15 AM42.8 °F41.0 °F93 %30.16 in10.0 miCalmClear
3:35 AM42.8 °F39.2 °F87 %30.15 in10.0 miCalmClear
3:55 AM41.0 °F39.2 °F93 %30.16 in10.0 miCalmClear
4:15 AM41.0 °F39.2 °F93 %30.16 in10.0 miCalmClear
4:35 AM41.0 °F39.2 °F93 %30.16 in10.0 miCalmClear
4:55 AM39.2 °F39.2 °F100 %30.16 in10.0 miCalmClear
5:15 AM39.2 °F39.2 °F100 %30.16 in10.0 miCalmClear
6:47 AM39.2 °F39.2 °F100 %30.16 in20.0 miCalmClear
8:47 AM53.6 °F39.2 °F58 %30.18 in25.0 miCalmClear
1:51 PM78.8 °F37.4 °F23 %30.12 in25.0 miWest (270°)11.5 mphMostly Cloudy
6:55 PM60.8 °F41.0 °F48 %30.15 in12.0 miCalmClear
7:55 PM57.2 °F41.0 °F55 %30.16 in12.0 miCalmClear
8:15 PM55.4 °F41.0 °F58 %30.17 in10.0 miCalmClear
8:35 PM55.4 °F41.0 °F58 %30.18 in10.0 miWest (280°)3.5 mphClear
8:47 PM55.4 °F41.0 °F58 %30.18 in12.0 miCalmClear
8:55 PM55.4 °F41.0 °F58 %30.18 in10.0 miWNW (290°)3.5 mphClear
9:35 PM53.6 °F41.0 °F62 %30.19 in10.0 miCalmClear
9:55 PM53.6 °F42.8 °F67 %30.19 in10.0 miWNW (290°)3.5 mphClear
10:15 PM53.6 °F42.8 °F67 %30.19 in10.0 miCalmClear
10:35 PM53.6 °F42.8 °F67 %30.19 in10.0 miCalmClear
10:55 PM51.8 °F42.8 °F71 %30.19 in10.0 miWNW (290°)4.6 mphClear
11:15 PM51.8 °F42.8 °F71 %30.19 in10.0 miCalmClear
11:35 PM51.8 °F42.8 °F71 %30.19 in10.0 miCalmClear
11:55 PM51.8 °F42.8 °F71 %30.19 in10.0 miCalmClear
Hourly data recorded from KSEE, located miles away from Rancho San Diego, California







STORIES FROM OUR PARTNERS